Wind_Speed
23 24 24 24 24 24 24 24 24 24 24 24 24 24 23 22 22 22 20 19 21 16 13 11 9 7 8 4 8 7 12 13 22 18 17 12 14 10 8 9 3 4 9 24 27
23 25 25 25 24 24 24 24 23 23 23 23 22 22 23 22 21 19 16 21 22 21 17 14 11 7 2 14 20 20 21 18 10 18 16 9 3 11 12 10 6 1 21 24 25
23 24 25 26 26 25 25 24 23 22 22 22 22 21 22 21 20 15 16 18 21 22 21 17 14 6 8 12 7 13 12 15 13 12 13 8 14 12 14 12 3 4 24 23 22
22 23 24 24 25 25 25 25 24 23 22 21 21 21 21 20 12 13 12 15 21 24 24 21 15 11 8 6 10 10 14 9 12 7 9 14 17 6 5 4 4 1 18 19 22
21 21 22 23 24 24 25 24 24 24 23 22 21 20 22 22 12 19 15 14 21 26 27 24 19 14 9 9 17 4 10 13 18 19 5 16 12 10 7 5 9 2 16 14 15
21 22 22 22 22 22 23 23 24 23 23 23 22 22 23 22 12 17 21 17 19 27 28 28 21 14 9 11 10 5 12 12 11 17 16 17 10 7 12 12 11 5 13 12 8
22 22 22 22 21 21 20 21 22 23 23 23 23 24 26 8 12 19 15 11 19 27 30 30 24 14 8 13 5 4 15 5 11 20 12 16 14 12 16 14 9 7 10 9 6
22 22 22 22 21 20 19 19 19 21 23 23 24 26 28 9 16 22 19 12 18 25 29 30 23 18 17 15 14 12 14 24 15 18 13 15 19 11 10 9 10 13 11 9 11
25 24 23 23 21 20 19 18 17 18 21 23 24 27 24 15 19 13 20 17 12 21 27 27 27 23 19 15 17 12 17 20 18 16 19 15 16 13 10 7 8 12 17 18 16
26 26 24 23 22 20 19 18 17 18 19 23 26 23 18 7 8 15 17 15 14 13 24 27 24 21 23 19 26 16 18 23 29 18 17 16 11 15 14 15 8 8 15 19 24
26 26 25 23 21 20 18 18 16 17 23 23 18 21 11 2 5 9 18 21 20 17 22 23 25 28 30 29 25 22 19 21 17 23 19 25 17 20 18 21 17 14 6 15 18
27 26 24 22 20 20 17 16 18 21 27 24 24 31 18 18 17 18 16 25 28 27 24 21 34 37 30 26 25 19 24 23 20 20 25 23 29 17 14 22 22 12 12 6 16
28 28 25 20 18 15 13 15 19 20 28 27 23 27 17 24 20 20 23 27 29 28 28 34 29 33 26 24 24 27 29 28 23 26 25 24 29 21 21 25 26 18 10 11 7
28 27 26 21 17 14 18 18 13 14 18 31 24 27 30 27 26 25 26 25 28 29 29 30 30 21 29 30 27 34 27 21 23 18 18 22 16 35 24 33 35 26 18 13 12
27 24 23 27 13 14 18 11 7 6 5 6 9 11 26 42 23 33 24 30 31 27 28 33 28 33 31 33 29 36 28 19 21 26 29 27 11 24 31 38 39 34 21 17 13
27 25 22 20 18 17 17 16 10 6 11 6 15 14 20 37 22 18 32 29 29 30 24 29 28 29 33 29 29 29 28 27 25 27 22 21 29 22 40 34 36 34 22 18 14
30 25 24 18 13 16 13 13 10 11 8 11 20 17 17 27 36 25 35 37 36 36 36 29 29 28 28 29 29 32 33 20 11 9 7 23 18 19 15 28 36 37 26 18 11
30 29 22 19 14 19 17 19 15 12 27 19 9 20 26 27 29 32 32 37 39 33 30 30 27 35 31 36 30 35 35 22 6 5 11 24 18 24 24 16 18 31 28 20 14
28 28 23 16 16 21 24 27 16 18 3 21 20 28 25 28 26 33 36 40 43 40 33 33 35 25 34 31 33 29 38 33 27 29 16 18 21 30 18 18 17 28 30 25 21
27 25 19 14 15 23 27 42 29 23 15 12 12 5 15 27 37 33 41 33 41 43 38 33 26 29 29 33 32 40 28 34 34 6 6 20 19 22 16 18 18 24 28 28 27
25 17 3 3 14 19 33 35 37 35 20 13 15 24 19 18 30 38 40 36 34 38 40 38 34 27 29 40 39 34 39 34 31 27 7 4 16 9 22 22 19 17 21 27 27
22 14 13 13 18 23 27 26 31 39 34 26 26 27 24 20 21 12 35 32 33 43 42 40 22 37 38 31 37 37 36 36 26 24 27 28 32 25 12 10 19 23 26 22 25
22 15 6 13 15 18 22 23 23 27 31 27 24 16 17 21 14 6 11 17 27 35 40 40 42 32 31 32 36 45 40 36 38 30 35 16 32 28 13 21 10 27 18 21 20
22 16 11 8 15 19 20 25 26 23 28 24 29 23 26 22 19 17 16 12 10 12 36 37 39 42 31 28 20 45 38 39 35 36 30 32 33 39 24 21 20 21 23 19 19
16 12 15 15 10 12 11 12 16 22 19 17 24 27 21 17 16 17 20 23 13 6 26 45 46 40 40 40 28 19 43 39 40 36 34 28 31 34 22 9 19 25 25 29 23
18 17 17 20 11 7 13 12 11 15 12 8 7 15 11 14 10 17 24 18 14 12 21 23 26 42 35 36 43 39 27 39 38 41 35 32 34 32 32 26 21 20 23 26 30
16 17 19 20 11 16 12 9 15 17 8 8 15 8 8 10 17 25 27 24 20 14 7 10 12 22 28 30 28 30 38 31 35 36 37 41 32 31 37 32 23 12 18 26 26
Wind_Direction
279 277 276 276 276 276 276 276 276 278 278 278 280 280 278 274 268 261 252 245 237 230 224 229 259 297 304 46 350 334 273 309 133 125 133 141 125 106 68 78 102 56 180 154 158
277 279 279 278 277 276 276 276 276 277 277 279 279 281 281 278 272 259 248 236 227 223 222 230 251 267 202 318 309 282 270 228 118 112 128 159 160 135 121 139 193 209 160 158 167
276 274 274 276 277 276 275 275 275 274 274 275 277 279 280 280 277 266 240 232 225 216 218 226 241 247 238 279 327 331 108 106 114 125 142 116 116 145 162 200 312 102 159 162 165
282 279 277 274 272 272 272 272 271 271 272 272 273 276 276 275 270 256 232 220 215 214 210 224 224 230 241 297 357 319 119 136 121 132 115 106 118 108 165 183 269 13 172 166 162
289 286 284 281 277 273 270 269 268 267 267 269 270 270 272 268 267 252 240 210 208 211 206 217 222 232 240 314 327 286 125 117 122 128 114 114 145 126 143 197 252 232 157 158 169
291 289 287 286 284 281 275 269 266 264 262 263 265 266 267 266 261 236 247 238 214 210 204 211 212 223 251 290 316 313 158 126 163 124 134 148 154 176 164 204 234 161 143 140 147
293 291 288 285 286 284 282 276 266 262 259 258 259 262 261 257 264 253 236 235 219 208 204 206 216 198 214 280 278 217 158 188 165 138 157 126 154 158 178 196 195 171 146 150 168
292 291 290 289 285 283 283 279 275 262 258 256 256 259 261 253 244 245 254 248 208 204 203 207 210 199 214 255 263 267 217 152 150 153 163 158 157 185 198 196 170 162 164 196 200
291 289 290 289 289 285 281 280 273 268 257 255 255 257 267 260 252 255 232 218 206 200 201 205 203 198 201 245 271 241 229 192 152 173 164 187 159 200 203 175 174 167 165 189 204
292 287 287 286 287 287 284 279 273 263 259 251 250 257 258 281 263 217 215 191 188 218 200 198 195 204 217 230 249 230 230 146 190 194 207 202 185 198 210 216 171 152 179 187 196
300 293 290 286 284 284 283 280 270 258 254 249 242 244 198 69 242 231 192 191 174 212 201 205 200 209 208 205 213 242 188 188 215 197 215 214 199 205 208 222 217 199 160 195 196
299 298 297 293 285 281 281 273 268 270 266 254 247 252 224 170 201 227 224 198 182 206 204 206 218 210 213 218 235 247 231 209 230 205 206 232 216 203 206 217 225 218 212 198 204
294 294 294 297 290 284 270 255 263 266 276 261 256 249 217 193 184 212 221 200 189 204 207 207 219 214 210 226 230 245 247 215 232 209 230 235 201 203 207 205 220 233 255 238 221
299 293 289 287 287 271 253 257 260 273 288 283 264 242 205 195 204 206 217 205 197 211 203 222 212 228 213 223 224 245 243 247 202 205 209 209 211 206 199 200 213 217 234 240 236
303 299 289 285 270 255 252 260 264 241 301 316 244 207 209 199 212 195 209 204 202 209 206 215 214 212 227 219 219 240 246 247 191 214 225 235 230 227 203 195 202 211 225 233 234
301 296 292 274 274 255 257 252 214 185 246 217 193 203 193 205 187 196 192 212 211 210 218 224 221 219 220 230 223 235 251 258 266 201 201 228 219 247 199 218 205 209 214 225 227
298 293 291 285 259 254 244 220 195 221 214 232 197 203 210 202 200 189 199 203 205 215 227 223 227 222 222 224 225 233 245 259 275 248 211 236 228 249 216 228 217 208 207 209 205
297 291 284 287 249 237 220 196 223 227 217 118 234 202 199 198 210 200 207 205 211 210 220 225 226 218 217 225 227 227 235 236 203 206 248 251 230 239 244 189 197 218 205 205 205
299 289 290 274 250 225 220 212 216 209 201 324 264 208 203 207 210 211 213 211 212 209 214 221 235 224 220 222 224 226 232 237 253 253 264 257 235 238 231 192 197 200 201 208 218
310 296 298 249 238 222 222 226 228 203 250 300 321 240 211 200 206 207 213 225 214 218 211 219 230 225 224 217 226 229 222 233 239 210 249 267 257 212 212 201 188 197 208 213 216
321 310 296 254 194 212 231 241 247 217 269 300 282 286 295 311 216 210 217 218 216 214 218 223 234 232 225 216 220 219 228 235 234 236 205 236 268 257 221 213 215 212 208 213 213
325 306 174 175 207 235 251 262 253 242 240 265 267 268 278 298 296 267 212 218 215 216 211 219 229 242 246 220 211 221 226 230 236 229 245 252 258 256 199 173 232 225 224 228 230
323 301 245 214 243 250 259 263 261 270 265 268 266 267 269 285 288 258 245 208 209 211 214 213 223 238 251 246 225 213 217 231 237 241 252 234 255 249 243 218 242 226 212 222 233
323 313 256 228 238 266 270 271 273 251 266 268 261 257 275 268 250 272 268 243 216 240 215 207 216 222 233 239 237 205 210 216 230 234 242 249 249 257 264 243 257 202 202 196 187
319 290 287 307 247 244 244 285 285 284 270 251 237 256 254 266 271 272 283 264 233 252 194 205 210 218 234 239 240 227 207 209 221 235 236 238 237 247 251 277 188 196 200 215 222
304 306 296 290 318 18 312 303 304 294 296 237 318 236 229 254 263 269 266 261 257 183 170 173 210 215 217 232 239 249 238 212 217 222 240 242 245 248 249 255 262 233 233 224 225
287 279 285 295 310 318 333 306 312 322 229 289 278 266 236 239 229 227 238 238 229 237 205 188 199 202 216 214 232 251 244 240 226 224 227 239 243 243 244 252 253 279 250 233 223
Height
3170 3169 3169 3168 3168 3168 3167 3167 3167 3167 3166 3165 3164 3164 3164 3164 3165 3166 3168 3172 3173 3175 3176 3177 3177 3178 3178 3177 3175 3178 3180 3183 3180 3179 3181 3181 3179 3180 3180 3178 3180 3182 3185 3186 3188
3166 3165 3164 3163 3163 3163 3162 3162 3162 3162 3162 3161 3160 3159 3159 3159 3159 3161 3165 3165 3169 3172 3174 3175 3176 3176 3174 3171 3173 3176 3179 3185 3181 3178 3182 3181 3182 3182 3180 3179 3181 3183 3185 3187 3190
3162 3161 3160 3158 3158 3158 3158 3157 3157 3157 3157 3156 3156 3156 3155 3154 3155 3157 3158 3161 3165 3169 3171 3173 3174 3176 3172 3171 3170 3171 3179 3181 3181 3180 3180 3182 3181 3182 3181 3181 3184 3186 3185 3188 3190
3157 3156 3155 3154 3154 3153 3152 3152 3152 3153 3152 3152 3152 3151 3150 3150 3154 3151 3154 3157 3160 3164 3168 3170 3172 3173 3172 3170 3170 3175 3177 3178 3181 3181 3181 3182 3184 3184 3182 3183 3183 3186 3188 3189 3191
3153 3151 3150 3149 3148 3148 3148 3147 3147 3148 3148 3147 3147 3147 3146 3146 3148 3147 3150 3152 3156 3160 3164 3168 3170 3172 3171 3170 3171 3176 3176 3177 3180 3182 3183 3184 3185 3186 3184 3183 3184 3187 3189 3190 3191
3149 3147 3146 3144 3143 3143 3142 3142 3142 3142 3142 3143 3142 3142 3141 3140 3143 3144 3147 3149 3152 3155 3161 3164 3168 3172 3171 3171 3172 3177 3177 3177 3180 3182 3185 3185 3186 3186 3187 3183 3185 3187 3189 3192 3193
3145 3143 3142 3140 3139 3138 3137 3136 3136 3137 3137 3137 3137 3136 3135 3139 3139 3138 3139 3144 3147 3151 3157 3162 3167 3169 3171 3169 3172 3172 3178 3176 3180 3181 3183 3185 3187 3185 3186 3186 3183 3185 3188 3191 3194
3140 3138 3137 3136 3135 3133 3133 3132 3131 3131 3131 3132 3132 3131 3126 3135 3135 3134 3137 3139 3144 3148 3153 3159 3164 3167 3168 3169 3168 3171 3173 3175 3178 3181 3182 3182 3184 3185 3184 3184 3184 3185 3186 3188 3193
3134 3133 3132 3131 3130 3129 3128 3128 3126 3126 3125 3126 3127 3126 3123 3128 3128 3132 3134 3136 3141 3145 3150 3156 3160 3165 3167 3168 3168 3168 3170 3173 3181 3183 3182 3183 3185 3185 3184 3183 3183 3184 3186 3190 3191
3128 3126 3125 3125 3124 3124 3123 3123 3122 3121 3120 3121 3121 3124 3123 3124 3124 3126 3129 3133 3139 3143 3148 3153 3156 3160 3163 3167 3164 3166 3170 3173 3176 3180 3181 3182 3182 3181 3183 3184 3183 3183 3185 3188 3191
3122 3121 3120 3119 3119 3118 3119 3118 3120 3117 3114 3114 3114 3113 3118 3121 3123 3123 3126 3131 3136 3142 3144 3148 3152 3152 3157 3160 3160 3167 3169 3172 3175 3175 3179 3177 3179 3177 3179 3182 3184 3184 3183 3185 3188
3117 3115 3114 3113 3113 3113 3114 3113 3112 3111 3106 3106 3107 3105 3112 3115 3118 3122 3125 3128 3131 3135 3142 3147 3142 3148 3156 3159 3160 3164 3170 3168 3170 3172 3174 3175 3176 3177 3176 3178 3180 3182 3183 3184 3186
3112 3109 3109 3109 3108 3109 3108 3107 3107 3105 3100 3097 3100 3100 3107 3111 3109 3117 3120 3123 3126 3132 3135 3135 3138 3148 3152 3156 3158 3159 3161 3164 3165 3168 3171 3171 3175 3174 3175 3176 3179 3181 3182 3183 3184
3105 3104 3103 3104 3107 3103 3100 3102 3103 3103 3098 3088 3089 3088 3095 3104 3104 3113 3115 3120 3124 3126 3132 3135 3139 3144 3146 3151 3155 3154 3154 3159 3165 3169 3167 3166 3167 3169 3168 3171 3174 3176 3178 3180 3182
3099 3098 3097 3093 3100 3100 3099 3100 3101 3101 3100 3086 3083 3084 3089 3091 3098 3102 3111 3116 3118 3123 3129 3128 3133 3137 3141 3144 3151 3149 3152 3158 3159 3161 3165 3162 3164 3159 3165 3166 3168 3172 3175 3178 3180
3093 3092 3091 3091 3093 3093 3094 3097 3099 3102 3091 3081 3078 3080 3083 3089 3095 3101 3107 3113 3117 3121 3124 3126 3131 3133 3136 3142 3146 3147 3150 3152 3153 3156 3157 3157 3158 3155 3157 3158 3164 3169 3172 3175 3178
3085 3085 3083 3085 3089 3088 3089 3093 3097 3090 3082 3078 3076 3077 3079 3082 3090 3094 3101 3105 3108 3113 3115 3122 3124 3129 3133 3137 3142 3143 3146 3148 3150 3150 3151 3151 3152 3152 3152 3153 3156 3162 3167 3171 3174
3077 3075 3079 3079 3080 3081 3084 3088 3083 3073 3076 3073 3081 3077 3077 3081 3085 3090 3097 3099 3103 3108 3113 3115 3118 3120 3125 3128 3135 3137 3140 3144 3150 3149 3145 3146 3146 3146 3149 3148 3150 3156 3163 3166 3170
3069 3067 3070 3072 3073 3074 3077 3074 3067 3068 3077 3071 3068 3074 3075 3078 3082 3087 3089 3092 3096 3101 3107 3110 3111 3119 3120 3125 3130 3132 3132 3140 3142 3141 3142 3141 3141 3144 3146 3147 3149 3152 3157 3160 3166
3060 3059 3064 3062 3065 3066 3065 3057 3059 3062 3062 3067 3067 3068 3073 3071 3078 3080 3084 3083 3090 3095 3103 3105 3110 3112 3116 3121 3123 3126 3134 3136 3135 3140 3145 3138 3137 3139 3143 3146 3148 3150 3153 3157 3161
3055 3054 3058 3059 3061 3059 3053 3053 3057 3057 3064 3066 3065 3061 3064 3069 3071 3068 3072 3079 3084 3090 3096 3101 3105 3105 3110 3110 3115 3121 3124 3128 3131 3133 3137 3140 3136 3138 3141 3146 3147 3149 3150 3152 3156
3052 3051 3052 3049 3053 3053 3052 3053 3056 3052 3057 3057 3059 3058 3060 3066 3064 3064 3066 3068 3076 3083 3086 3092 3098 3098 3099 3106 3109 3114 3117 3121 3124 3126 3130 3132 3130 3135 3140 3142 3145 3147 3150 3150 3152
3047 3044 3044 3044 3047 3048 3050 3050 3051 3050 3049 3053 3054 3054 3058 3061 3061 3058 3059 3064 3073 3074 3078 3087 3089 3095 3095 3099 3102 3104 3111 3116 3120 3126 3125 3128 3123 3131 3139 3140 3140 3142 3146 3147 3148
3045 3040 3038 3040 3041 3041 3043 3043 3043 3044 3046 3049 3047 3050 3053 3054 3056 3052 3052 3054 3059 3063 3070 3077 3082 3084 3085 3089 3095 3098 3104 3110 3115 3117 3122 3122 3123 3123 3133 3137 3136 3139 3145 3146 3148
3045 3042 3040 3038 3038 3037 3040 3041 3039 3038 3038 3040 3041 3045 3048 3050 3049 3051 3050 3045 3049 3053 3057 3067 3070 3077 3081 3085 3087 3094 3097 3102 3106 3110 3113 3119 3120 3119 3127 3132 3131 3138 3138 3141 3142
3041 3040 3038 3036 3034 3034 3037 3035 3037 3037 3035 3034 3034 3038 3043 3046 3045 3044 3043 3044 3045 3049 3051 3055 3061 3069 3075 3080 3081 3086 3094 3095 3098 3104 3107 3112 3114 3118 3123 3128 3133 3134 3134 3135 3138
3040 3038 3035 3034 3035 3035 3033 3033 3032 3030 3030 3034 3032 3032 3035 3035 3034 3035 3036 3038 3040 3043 3046 3050 3056 3061 3066 3075 3080 3081 3081 3089 3094 3096 3101 3104 3111 3117 3117 3120 3125 3127 3127 3129 3132